Regional Weather Roundup
Issued by NWS Albany, NY

Current Version | Previous Version | Graphics & Text | Print | Product List | Glossary Off
Versions: 1 2 3 4 5 6 7 8 9 10 11 12 13 14 15 16 17 18 19 20 21 22 23 24 25 26 27

000
ASUS41 KALY 180310
RWRALY

NEW YORK STATE HOURLY WEATHER ROUNDUP
NATIONAL WEATHER SERVICE ALBANY NY
1000 PM EST SAT FEB 17 2018

NOTE: "FAIR" INDICATES FEW OR NO CLOUDS BELOW 12,000 FEET WITH NO
SIGNIFICANT WEATHER AND/OR NO OBSTRUCTIONS TO VISIBILITY.

NYZ032-033-038>043-046>054-057>066-NYZ062>081-082-084-180400-
EAST


CITY           SKY/WX    TMP DP  RH WIND       PRES   REMARKS
ALBANY         LGT SNOW  30  26  85 S12       30.08F FOG     WCI  20
GLENS FALLS    LGT SNOW  29  27  92 S8        30.08F FOG     WCI  21
POUGHKEEPSIE   SNOW      30  28  92 N3        30.09S VSB 1/2
NEWBURGH       SNOW      30  30 100 CALM      30.09S VSB 1/2
MONTGOMERY     LGT SNOW  31  29  92 N3        30.07S VSB 1
WHITE PLAINS   SNOW      32  31  96 E7        30.05F VSB 1/2 WCI  26
ISLIP          LGT SNOW  33  33 100 E8        30.06F FOG     WCI  26
NEW YORK CITY  LGT SNOW  33  32  96 E5        30.07F VSB 1   WCI  29
CENTRAL PARK   LGT SNOW  33  32  96 VRB3      30.08F FOG
$$

NYZ005>009-017-018-044>046-055-056-180400-
CENTRAL


CITY           SKY/WX    TMP DP  RH WIND       PRES   REMARKS
FULTON         LGT SNOW  31  27  85 S6        30.00F FOG     WCI  25
SYRACUSE       LGT SNOW  30  28  92 S10       30.00F FOG     WCI  21
ROME           LGT SNOW  30  28  92 E5        30.04F VSB 1   WCI  25
ELMIRA         CLOUDY    30  27  88 SE6       29.99F WCI  24
BINGHAMTON     LGT SNOW  26  24  92 S8        29.97S FOG     WCI  18
MONTICELLO     LGT SNOW N/A N/A N/A SE6       30.02F
$$

NYZ026>034-041>043-087-180400-
NORTH


CITY           SKY/WX    TMP DP  RH WIND       PRES   REMARKS
WATERTOWN      LGT SNOW  32  24  72 SW14G21   29.99F WCI  22
FORT DRUM      NOT AVBL
OGDENSBURG     FAIR      26  21  81 MISG      29.98F
MASSENA        CLOUDY    24  17  74 CALM      30.00F
SARANAC LAKE   LGT SNOW  26  17  68 SW15      29.92S WCI  14
PLATTSBURGH    CLOUDY    33  16  49 S14G20    30.02R WCI  23
$$

NYZ001>004-010>016-019>021-085-180400-
WEST


CITY           SKY/WX    TMP DP  RH WIND       PRES   REMARKS
NIAGARA FALLS  CLOUDY    31  20  63 S12       29.96F WCI  22
BUFFALO        CLOUDY    28  22  78 S9        29.97F WCI  19
DUNKIRK        FLURRIES  27  24  89 S7        29.98F WCI  19
JAMESTOWN        N/A    N/A N/A N/A MISG        N/A
WELLSVILLE     CLOUDY    28  25  88 MISG      29.91F
ROCHESTER      LGT SNOW  28  23  81 W5        29.99F WCI  23
PENN YAN       LGT SNOW  30  25  81 S13       29.97F WCI  20
$$

             KEY
       WCI = WIND CHILL INDEX
       VSB = VISIBILITY
       HX  = HEAT INDEX
$$




USA.gov is the U.S. government's official web portal to all federal, state and local government web resources and services.